Year,Month,Day,Hour,Minute,Value (Times are PST for windgust in km/hr)
2010,08,28,00,09,1.60
2010,08,28,00,16,1.60
2010,08,28,00,29,1.60
2010,08,28,00,30,1.60
2010,08,28,00,31,1.60
2010,08,28,00,32,3.20
2010,08,28,00,33,1.60
2010,08,28,00,53,3.20
2010,08,28,00,54,3.20
2010,08,28,00,55,3.20
2010,08,28,00,56,3.20
2010,08,28,00,57,3.20
2010,08,28,00,58,3.20
2010,08,28,00,59,3.20
2010,08,28,01,01,3.20
2010,08,28,01,24,3.20
2010,08,28,01,25,3.20
2010,08,28,01,26,3.20
2010,08,28,01,27,3.20
2010,08,28,01,28,3.20
2010,08,28,01,29,3.20
2010,08,28,01,30,1.60
2010,08,28,01,31,1.60
2010,08,28,01,32,3.20
2010,08,28,01,33,3.20
2010,08,28,01,34,3.20
2010,08,28,01,35,1.60
2010,08,28,01,36,3.20
2010,08,28,01,37,3.20
2010,08,28,01,40,3.20
2010,08,28,01,41,3.20
2010,08,28,01,43,3.20
2010,08,28,01,44,1.60
2010,08,28,01,45,3.20
2010,08,28,01,46,3.20
2010,08,28,01,47,1.60
2010,08,28,01,48,3.20
2010,08,28,01,49,3.20
2010,08,28,01,50,1.60
2010,08,28,02,16,3.20
2010,08,28,02,17,3.20
2010,08,28,02,23,1.60
2010,08,28,02,28,3.20
2010,08,28,02,38,3.20
2010,08,28,02,39,1.60
2010,08,28,02,42,1.60
2010,08,28,02,43,1.60
2010,08,28,02,44,3.20
2010,08,28,02,45,3.20
2010,08,28,02,48,3.20
2010,08,28,03,30,1.60
2010,08,28,04,47,1.60
2010,08,28,04,56,1.60
2010,08,28,05,04,1.60
2010,08,28,05,08,1.60
2010,08,28,05,09,1.60
2010,08,28,05,14,3.20
2010,08,28,05,17,1.60
2010,08,28,05,20,1.60
2010,08,28,05,22,1.60
2010,08,28,05,24,1.60
2010,08,28,05,27,3.20
2010,08,28,05,28,3.20
2010,08,28,05,29,4.80
2010,08,28,05,31,3.20
2010,08,28,05,32,1.60
2010,08,28,05,33,3.20
2010,08,28,05,36,1.60
2010,08,28,05,37,3.20
2010,08,28,05,41,1.60
2010,08,28,06,04,1.60
2010,08,28,06,05,1.60
2010,08,28,06,14,1.60
2010,08,28,06,22,1.60
2010,08,28,06,32,3.20
2010,08,28,06,33,3.20
2010,08,28,06,34,4.80
2010,08,28,06,35,3.20
2010,08,28,06,36,4.80
2010,08,28,06,37,3.20
2010,08,28,06,38,1.60
2010,08,28,06,39,1.60
2010,08,28,06,40,3.20
2010,08,28,06,41,3.20
2010,08,28,06,42,3.20
2010,08,28,06,43,1.60
2010,08,28,06,46,1.60
2010,08,28,06,57,3.20
2010,08,28,06,58,1.60
2010,08,28,06,59,1.60
2010,08,28,07,01,3.20
2010,08,28,07,02,1.60
2010,08,28,07,03,3.20
2010,08,28,07,04,1.60
2010,08,28,07,06,3.20
2010,08,28,07,10,1.60
2010,08,28,07,11,1.60
2010,08,28,07,12,3.20
2010,08,28,07,13,1.60
2010,08,28,07,14,3.20
2010,08,28,07,15,4.80
2010,08,28,07,16,3.20
2010,08,28,07,17,3.20
2010,08,28,07,18,3.20
2010,08,28,07,19,1.60
2010,08,28,07,20,3.20
2010,08,28,07,21,3.20
2010,08,28,07,22,1.60
2010,08,28,07,41,1.60
2010,08,28,07,42,3.20
2010,08,28,07,43,1.60
2010,08,28,07,44,3.20
2010,08,28,07,46,1.60
2010,08,28,08,23,1.60
2010,08,28,08,27,3.20
2010,08,28,08,28,4.80
2010,08,28,08,29,4.80
2010,08,28,08,30,4.80
2010,08,28,08,31,3.20
2010,08,28,08,33,4.80
2010,08,28,08,34,3.20
2010,08,28,08,35,3.20
2010,08,28,08,36,4.80
2010,08,28,08,37,6.40
2010,08,28,08,38,4.80
2010,08,28,08,39,4.80
2010,08,28,08,40,4.80
2010,08,28,08,41,3.20
2010,08,28,08,42,3.20
2010,08,28,08,44,1.60
2010,08,28,08,47,1.60
2010,08,28,08,48,3.20
2010,08,28,08,49,3.20
2010,08,28,08,50,3.20
2010,08,28,08,51,3.20
2010,08,28,08,52,3.20
2010,08,28,08,53,3.20
2010,08,28,08,54,4.80
2010,08,28,08,55,1.60
2010,08,28,08,56,1.60
2010,08,28,08,57,4.80
2010,08,28,08,58,4.80
2010,08,28,08,59,1.60
2010,08,28,09,00,1.60
2010,08,28,09,01,4.80
2010,08,28,09,02,6.40
2010,08,28,09,03,6.40
2010,08,28,09,04,6.40
2010,08,28,09,05,4.80
2010,08,28,09,06,6.40
2010,08,28,09,07,3.20
2010,08,28,09,08,6.40
2010,08,28,09,09,6.40
2010,08,28,09,10,6.40
2010,08,28,09,11,4.80
2010,08,28,09,12,4.80
2010,08,28,09,13,4.80
2010,08,28,09,14,6.40
2010,08,28,09,15,4.80
2010,08,28,09,16,6.40
2010,08,28,09,17,6.40
2010,08,28,09,18,6.40
2010,08,28,09,19,8.10
2010,08,28,09,20,9.60
2010,08,28,09,21,3.20
2010,08,28,09,22,9.60
2010,08,28,09,23,8.10
2010,08,28,09,24,8.10
2010,08,28,09,25,9.60
2010,08,28,09,26,8.10
2010,08,28,09,27,8.10
2010,08,28,09,28,9.60
2010,08,28,09,29,4.80
2010,08,28,09,30,4.80
2010,08,28,09,31,6.40
2010,08,28,09,32,8.10
2010,08,28,09,33,8.10
2010,08,28,09,34,6.40
2010,08,28,09,35,9.60
2010,08,28,09,36,6.40
2010,08,28,09,37,3.20
2010,08,28,09,38,8.10
2010,08,28,09,39,9.60
2010,08,28,09,40,9.60
2010,08,28,09,41,6.40
2010,08,28,09,42,8.10
2010,08,28,09,43,9.60
2010,08,28,09,44,9.60
2010,08,28,09,45,4.80
2010,08,28,09,48,8.10
2010,08,28,09,49,8.10
2010,08,28,09,50,4.80
2010,08,28,09,51,3.20
2010,08,28,09,52,4.80
2010,08,28,09,53,3.20
2010,08,28,09,54,1.60
2010,08,28,09,55,4.80
2010,08,28,09,56,1.60
2010,08,28,09,58,6.40
2010,08,28,09,59,8.10
2010,08,28,10,00,6.40
2010,08,28,10,01,1.60
2010,08,28,10,02,4.80
2010,08,28,10,03,4.80
2010,08,28,10,06,3.20
2010,08,28,10,07,8.10
2010,08,28,10,08,8.10
2010,08,28,10,09,11.30
2010,08,28,10,10,9.60
2010,08,28,10,11,8.10
2010,08,28,10,12,8.10
2010,08,28,10,13,1.60
2010,08,28,10,15,1.60
2010,08,28,10,17,8.10
2010,08,28,10,18,6.40
2010,08,28,10,19,6.40
2010,08,28,10,20,6.40
2010,08,28,10,21,6.40
2010,08,28,10,22,6.40
2010,08,28,10,23,4.80
2010,08,28,10,24,1.60
2010,08,28,10,25,4.80
2010,08,28,10,26,6.40
2010,08,28,10,27,6.40
2010,08,28,10,28,6.40
2010,08,28,10,29,6.40
2010,08,28,10,30,4.80
2010,08,28,10,31,6.40
2010,08,28,10,32,8.10
2010,08,28,10,33,11.30
2010,08,28,10,34,4.80
2010,08,28,10,35,6.40
2010,08,28,10,36,4.80
2010,08,28,10,37,6.40
2010,08,28,10,38,1.60
2010,08,28,10,39,4.80
2010,08,28,10,40,1.60
2010,08,28,10,41,11.30
2010,08,28,10,42,9.60
2010,08,28,10,43,9.60
2010,08,28,10,44,8.10
2010,08,28,10,45,6.40
2010,08,28,10,46,3.20
2010,08,28,10,47,6.40
2010,08,28,10,48,8.10
2010,08,28,10,49,9.60
2010,08,28,10,50,4.80
2010,08,28,10,51,4.80
2010,08,28,10,52,6.40
2010,08,28,10,53,6.40
2010,08,28,10,54,8.10
2010,08,28,10,55,6.40
2010,08,28,10,56,6.40
2010,08,28,10,57,9.60
2010,08,28,10,58,9.60
2010,08,28,10,59,9.60
2010,08,28,11,00,8.10
2010,08,28,11,01,8.10
2010,08,28,11,02,4.80
2010,08,28,11,03,8.10
2010,08,28,11,04,8.10
2010,08,28,11,05,11.30
2010,08,28,11,06,9.60
2010,08,28,11,07,9.60
2010,08,28,11,08,12.90
2010,08,28,11,09,17.70
2010,08,28,11,10,9.60
2010,08,28,11,11,11.30
2010,08,28,11,12,8.10
2010,08,28,11,13,8.10
2010,08,28,11,14,11.30
2010,08,28,11,15,12.90
2010,08,28,11,16,14.50
2010,08,28,11,17,16.10
2010,08,28,11,18,14.50
2010,08,28,11,19,14.50
2010,08,28,11,20,12.90
2010,08,28,11,21,16.10
2010,08,28,11,22,9.60
2010,08,28,11,23,9.60
2010,08,28,11,24,11.30
2010,08,28,11,25,11.30
2010,08,28,11,26,9.60
2010,08,28,11,27,16.10
2010,08,28,11,28,17.70
2010,08,28,11,29,17.70
2010,08,28,11,30,12.90
2010,08,28,11,31,14.50
2010,08,28,11,32,9.60
2010,08,28,11,33,11.30
2010,08,28,11,34,8.10
2010,08,28,11,35,16.10
2010,08,28,11,36,17.70
2010,08,28,11,37,14.50
2010,08,28,11,38,9.60
2010,08,28,11,39,8.10
2010,08,28,11,40,11.30
2010,08,28,11,41,14.50
2010,08,28,11,42,11.30
2010,08,28,11,43,12.90
2010,08,28,11,44,11.30
2010,08,28,11,45,9.60
2010,08,28,11,46,3.20
2010,08,28,11,47,6.40
2010,08,28,11,48,8.10
2010,08,28,11,49,8.10
2010,08,28,11,50,14.50
2010,08,28,11,51,11.30
2010,08,28,11,52,16.10
2010,08,28,11,53,11.30
2010,08,28,11,54,8.10
2010,08,28,11,55,14.50
2010,08,28,11,56,11.30
2010,08,28,11,57,16.10
2010,08,28,11,58,11.30
2010,08,28,11,59,16.10
2010,08,28,12,00,17.70
2010,08,28,12,01,14.50
2010,08,28,12,02,17.70
2010,08,28,12,03,9.60
2010,08,28,12,04,19.30
2010,08,28,12,05,17.70
2010,08,28,12,06,14.50
2010,08,28,12,07,14.50
2010,08,28,12,08,17.70
2010,08,28,12,09,19.30
2010,08,28,12,10,11.30
2010,08,28,12,11,11.30
2010,08,28,12,12,14.50
2010,08,28,12,13,16.10
2010,08,28,12,14,17.70
2010,08,28,12,15,16.10
2010,08,28,12,16,16.10
2010,08,28,12,17,14.50
2010,08,28,12,18,19.30
2010,08,28,12,19,17.70
2010,08,28,12,20,19.30
2010,08,28,12,21,17.70
2010,08,28,12,22,17.70
2010,08,28,12,23,20.90
2010,08,28,12,24,19.30
2010,08,28,12,25,12.90
2010,08,28,12,26,16.10
2010,08,28,12,27,14.50
2010,08,28,12,28,14.50
2010,08,28,12,29,11.30
2010,08,28,12,30,11.30
2010,08,28,12,31,9.60
2010,08,28,12,32,16.10
2010,08,28,12,33,19.30
2010,08,28,12,34,17.70
2010,08,28,12,35,16.10
2010,08,28,12,36,16.10
2010,08,28,12,37,16.10
2010,08,28,12,38,14.50
2010,08,28,12,39,14.50
2010,08,28,12,40,14.50
2010,08,28,12,41,19.30
2010,08,28,12,42,17.70
2010,08,28,12,43,17.70
2010,08,28,12,44,16.10
2010,08,28,12,45,17.70
2010,08,28,12,46,17.70
2010,08,28,12,47,19.30
2010,08,28,12,48,17.70
2010,08,28,12,49,19.30
2010,08,28,12,50,17.70
2010,08,28,12,51,11.30
2010,08,28,12,52,19.30
2010,08,28,12,53,20.90
2010,08,28,12,54,19.30
2010,08,28,12,55,19.30
2010,08,28,12,56,16.10
2010,08,28,12,57,14.50
2010,08,28,12,58,16.10
2010,08,28,12,59,17.70
2010,08,28,13,00,12.90
2010,08,28,13,01,14.50
2010,08,28,13,02,11.30
2010,08,28,13,03,16.10
2010,08,28,13,04,14.50
2010,08,28,13,05,14.50
2010,08,28,13,06,14.50
2010,08,28,13,07,17.70
2010,08,28,13,08,19.30
2010,08,28,13,09,17.70
2010,08,28,13,10,16.10
2010,08,28,13,11,17.70
2010,08,28,13,12,11.30
2010,08,28,13,13,16.10
2010,08,28,13,14,16.10
2010,08,28,13,15,19.30
2010,08,28,13,16,16.10
2010,08,28,13,17,17.70
2010,08,28,13,18,9.60
2010,08,28,13,19,16.10
2010,08,28,13,20,16.10
2010,08,28,13,21,17.70
2010,08,28,13,22,19.30
2010,08,28,13,23,9.60
2010,08,28,13,24,9.60
2010,08,28,13,25,19.30
2010,08,28,13,26,17.70
2010,08,28,13,27,12.90
2010,08,28,13,28,17.70
2010,08,28,13,29,16.10
2010,08,28,13,30,17.70
2010,08,28,13,31,19.30
2010,08,28,13,32,14.50
2010,08,28,13,33,9.60
2010,08,28,13,34,9.60
2010,08,28,13,35,11.30
2010,08,28,13,36,16.10
2010,08,28,13,37,12.90
2010,08,28,13,38,17.70
2010,08,28,13,39,17.70
2010,08,28,13,40,12.90
2010,08,28,13,41,16.10
2010,08,28,13,42,16.10
2010,08,28,13,43,20.90
2010,08,28,13,44,20.90
2010,08,28,13,45,19.30
2010,08,28,13,46,12.90
2010,08,28,13,47,14.50
2010,08,28,13,48,16.10
2010,08,28,13,49,11.30
2010,08,28,13,50,20.90
2010,08,28,13,51,22.50
2010,08,28,13,52,20.90
2010,08,28,13,53,17.70
2010,08,28,13,54,17.70
2010,08,28,13,55,19.30
2010,08,28,13,56,16.10
2010,08,28,13,57,16.10
2010,08,28,13,58,20.90
2010,08,28,13,59,24.20
2010,08,28,14,00,20.90
2010,08,28,14,01,17.70
2010,08,28,14,02,19.30
2010,08,28,14,03,16.10
2010,08,28,14,04,19.30
2010,08,28,14,05,17.70
2010,08,28,14,06,9.60
2010,08,28,14,07,17.70
2010,08,28,14,08,22.50
2010,08,28,14,09,17.70
2010,08,28,14,10,16.10
2010,08,28,14,11,14.50
2010,08,28,14,12,11.30
2010,08,28,14,13,9.60
2010,08,28,14,14,11.30
2010,08,28,14,15,19.30
2010,08,28,14,16,19.30
2010,08,28,14,17,11.30
2010,08,28,14,18,4.80
2010,08,28,14,19,9.60
2010,08,28,14,20,17.70
2010,08,28,14,21,14.50
2010,08,28,14,22,17.70
2010,08,28,14,23,14.50
2010,08,28,14,24,14.50
2010,08,28,14,25,16.10
2010,08,28,14,26,16.10
2010,08,28,14,27,17.70
2010,08,28,14,28,11.30
2010,08,28,14,29,11.30
2010,08,28,14,30,16.10
2010,08,28,14,31,22.50
2010,08,28,14,32,19.30
2010,08,28,14,33,20.90
2010,08,28,14,34,17.70
2010,08,28,14,35,16.10
2010,08,28,14,36,12.90
2010,08,28,14,37,17.70
2010,08,28,14,38,17.70
2010,08,28,14,39,16.10
2010,08,28,14,40,12.90
2010,08,28,14,41,11.30
2010,08,28,14,42,12.90
2010,08,28,14,43,14.50
2010,08,28,14,44,14.50
2010,08,28,14,45,11.30
2010,08,28,14,46,16.10
2010,08,28,14,47,20.90
2010,08,28,14,48,17.70
2010,08,28,14,49,20.90
2010,08,28,14,50,11.30
2010,08,28,14,51,14.50
2010,08,28,14,52,17.70
2010,08,28,14,53,11.30
2010,08,28,14,54,19.30
2010,08,28,14,55,9.60
2010,08,28,14,56,6.40
2010,08,28,14,57,17.70
2010,08,28,14,58,14.50
2010,08,28,14,59,16.10
2010,08,28,15,00,16.10
2010,08,28,15,01,11.30
2010,08,28,15,02,9.60
2010,08,28,15,03,12.90
2010,08,28,15,04,11.30
2010,08,28,15,05,9.60
2010,08,28,15,06,12.90
2010,08,28,15,07,11.30
2010,08,28,15,08,11.30
2010,08,28,15,09,11.30
2010,08,28,15,10,17.70
2010,08,28,15,11,14.50
2010,08,28,15,12,17.70
2010,08,28,15,13,16.10
2010,08,28,15,14,14.50
2010,08,28,15,15,20.90
2010,08,28,15,16,19.30
2010,08,28,15,17,17.70
2010,08,28,15,18,17.70
2010,08,28,15,19,14.50
2010,08,28,15,20,17.70
2010,08,28,15,21,14.50
2010,08,28,15,22,11.30
2010,08,28,15,23,11.30
2010,08,28,15,24,11.30
2010,08,28,15,25,14.50
2010,08,28,15,26,16.10
2010,08,28,15,27,16.10
2010,08,28,15,28,16.10
2010,08,28,15,29,14.50
2010,08,28,15,30,14.50
2010,08,28,15,31,11.30
2010,08,28,15,32,19.30
2010,08,28,15,33,17.70
2010,08,28,15,34,12.90
2010,08,28,15,35,16.10
2010,08,28,15,36,12.90
2010,08,28,15,37,11.30
2010,08,28,15,38,17.70
2010,08,28,15,39,16.10
2010,08,28,15,40,16.10
2010,08,28,15,41,14.50
2010,08,28,15,42,14.50
2010,08,28,15,43,11.30
2010,08,28,15,44,16.10
2010,08,28,15,45,12.90
2010,08,28,15,46,16.10
2010,08,28,15,47,16.10
2010,08,28,15,48,14.50
2010,08,28,15,49,12.90
2010,08,28,15,50,11.30
2010,08,28,15,51,16.10
2010,08,28,15,52,9.60
2010,08,28,15,53,14.50
2010,08,28,15,54,12.90
2010,08,28,15,55,16.10
2010,08,28,15,56,14.50
2010,08,28,15,57,16.10
2010,08,28,15,58,11.30
2010,08,28,15,59,11.30
2010,08,28,16,00,17.70
2010,08,28,16,01,12.90
2010,08,28,16,02,16.10
2010,08,28,16,03,11.30
2010,08,28,16,04,11.30
2010,08,28,16,05,16.10
2010,08,28,16,06,17.70
2010,08,28,16,07,19.30
2010,08,28,16,08,14.50
2010,08,28,16,09,17.70
2010,08,28,16,10,11.30
2010,08,28,16,11,19.30
2010,08,28,16,12,14.50
2010,08,28,16,13,16.10
2010,08,28,16,14,17.70
2010,08,28,16,15,17.70
2010,08,28,16,16,16.10
2010,08,28,16,17,17.70
2010,08,28,16,18,16.10
2010,08,28,16,19,12.90
2010,08,28,16,20,14.50
2010,08,28,16,21,9.60
2010,08,28,16,22,8.10
2010,08,28,16,23,9.60
2010,08,28,16,24,9.60
2010,08,28,16,25,11.30
2010,08,28,16,26,14.50
2010,08,28,16,27,17.70
2010,08,28,16,28,14.50
2010,08,28,16,29,17.70
2010,08,28,16,30,12.90
2010,08,28,16,31,12.90
2010,08,28,16,32,16.10
2010,08,28,16,33,14.50
2010,08,28,16,34,17.70
2010,08,28,16,35,16.10
2010,08,28,16,36,16.10
2010,08,28,16,37,17.70
2010,08,28,16,38,19.30
2010,08,28,16,39,16.10
2010,08,28,16,40,19.30
2010,08,28,16,41,16.10
2010,08,28,16,42,14.50
2010,08,28,16,43,11.30
2010,08,28,16,44,16.10
2010,08,28,16,45,16.10
2010,08,28,16,46,16.10
2010,08,28,16,47,16.10
2010,08,28,16,48,17.70
2010,08,28,16,49,17.70
2010,08,28,16,50,17.70
2010,08,28,16,51,14.50
2010,08,28,16,52,17.70
2010,08,28,16,53,16.10
2010,08,28,16,54,17.70
2010,08,28,16,55,17.70
2010,08,28,16,56,16.10
2010,08,28,16,57,9.60
2010,08,28,16,58,14.50
2010,08,28,16,59,12.90
2010,08,28,17,00,11.30
2010,08,28,17,01,14.50
2010,08,28,17,02,16.10
2010,08,28,17,03,14.50
2010,08,28,17,04,9.60
2010,08,28,17,05,9.60
2010,08,28,17,06,11.30
2010,08,28,17,07,9.60
2010,08,28,17,08,11.30
2010,08,28,17,09,9.60
2010,08,28,17,10,11.30
2010,08,28,17,11,11.30
2010,08,28,17,12,9.60
2010,08,28,17,13,8.10
2010,08,28,17,14,9.60
2010,08,28,17,15,9.60
2010,08,28,17,16,4.80
2010,08,28,17,17,16.10
2010,08,28,17,18,11.30
2010,08,28,17,19,8.10
2010,08,28,17,20,9.60
2010,08,28,17,21,8.10
2010,08,28,17,22,11.30
2010,08,28,17,23,8.10
2010,08,28,17,24,9.60
2010,08,28,17,25,11.30
2010,08,28,17,26,11.30
2010,08,28,17,27,9.60
2010,08,28,17,28,8.10
2010,08,28,17,29,11.30
2010,08,28,17,30,11.30
2010,08,28,17,31,9.60
2010,08,28,17,32,8.10
2010,08,28,17,33,14.50
2010,08,28,17,34,8.10
2010,08,28,17,35,8.10
2010,08,28,17,36,9.60
2010,08,28,17,37,8.10
2010,08,28,17,38,8.10
2010,08,28,17,39,4.80
2010,08,28,17,40,8.10
2010,08,28,17,41,14.50
2010,08,28,17,42,8.10
2010,08,28,17,43,9.60
2010,08,28,17,44,6.40
2010,08,28,17,45,8.10
2010,08,28,17,46,9.60
2010,08,28,17,47,9.60
2010,08,28,17,48,11.30
2010,08,28,17,49,9.60
2010,08,28,17,50,8.10
2010,08,28,17,51,8.10
2010,08,28,17,52,3.20
2010,08,28,17,53,6.40
2010,08,28,17,54,4.80
2010,08,28,17,55,6.40
2010,08,28,17,56,6.40
2010,08,28,17,57,6.40
2010,08,28,17,58,4.80
2010,08,28,17,59,8.10
2010,08,28,18,00,6.40
2010,08,28,18,01,6.40
2010,08,28,18,02,4.80
2010,08,28,18,03,8.10
2010,08,28,18,04,6.40
2010,08,28,18,05,4.80
2010,08,28,18,06,1.60
2010,08,28,18,07,6.40
2010,08,28,18,08,6.40
2010,08,28,18,09,1.60
2010,08,28,18,10,4.80
2010,08,28,18,11,4.80
2010,08,28,18,13,1.60
2010,08,28,18,15,1.60
2010,08,28,18,16,4.80
2010,08,28,18,17,6.40
2010,08,28,18,18,3.20
2010,08,28,18,19,1.60
2010,08,28,18,20,4.80
2010,08,28,18,21,6.40
2010,08,28,18,22,6.40
2010,08,28,18,23,4.80
2010,08,28,18,24,4.80
2010,08,28,18,25,4.80
2010,08,28,18,26,3.20
2010,08,28,18,27,6.40
2010,08,28,18,28,3.20
2010,08,28,18,29,1.60
2010,08,28,18,30,3.20
2010,08,28,18,31,8.10
2010,08,28,18,32,6.40
2010,08,28,18,33,4.80
2010,08,28,18,34,4.80
2010,08,28,18,35,8.10
2010,08,28,18,36,4.80
2010,08,28,18,37,6.40
2010,08,28,18,38,8.10
2010,08,28,18,39,9.60
2010,08,28,18,40,9.60
2010,08,28,18,41,12.90
2010,08,28,18,42,14.50
2010,08,28,18,43,9.60
2010,08,28,18,44,11.30
2010,08,28,18,45,14.50
2010,08,28,18,46,17.70
2010,08,28,18,47,14.50
2010,08,28,18,48,14.50
2010,08,28,18,49,8.10
2010,08,28,18,50,9.60
2010,08,28,18,51,16.10
2010,08,28,18,52,14.50
2010,08,28,18,53,9.60
2010,08,28,18,54,14.50
2010,08,28,18,55,11.30
2010,08,28,18,56,11.30
2010,08,28,18,57,9.60
2010,08,28,18,58,11.30
2010,08,28,18,59,11.30
2010,08,28,19,00,11.30
2010,08,28,19,01,14.50
2010,08,28,19,02,12.90
2010,08,28,19,03,8.10
2010,08,28,19,04,11.30
2010,08,28,19,05,14.50
2010,08,28,19,06,11.30
2010,08,28,19,07,16.10
2010,08,28,19,08,16.10
2010,08,28,19,09,11.30
2010,08,28,19,10,9.60
2010,08,28,19,11,11.30
2010,08,28,19,12,12.90
2010,08,28,19,13,9.60
2010,08,28,19,14,6.40
2010,08,28,19,15,11.30
2010,08,28,19,16,14.50
2010,08,28,19,17,8.10
2010,08,28,19,18,8.10
2010,08,28,19,19,9.60
2010,08,28,19,20,11.30
2010,08,28,19,21,16.10
2010,08,28,19,22,12.90
2010,08,28,19,23,11.30
2010,08,28,19,24,9.60
2010,08,28,19,25,11.30
2010,08,28,19,26,11.30
2010,08,28,19,27,12.90
2010,08,28,19,28,6.40
2010,08,28,19,29,8.10
2010,08,28,19,30,9.60
2010,08,28,19,31,11.30
2010,08,28,19,32,9.60
2010,08,28,19,33,14.50
2010,08,28,19,34,8.10
2010,08,28,19,35,8.10
2010,08,28,19,36,8.10
2010,08,28,19,37,9.60
2010,08,28,19,38,16.10
2010,08,28,19,39,11.30
2010,08,28,19,40,11.30
2010,08,28,19,41,8.10
2010,08,28,19,42,12.90
2010,08,28,19,43,9.60
2010,08,28,19,44,11.30
2010,08,28,19,45,9.60
2010,08,28,19,46,9.60
2010,08,28,19,47,11.30
2010,08,28,19,48,14.50
2010,08,28,19,49,9.60
2010,08,28,19,50,9.60
2010,08,28,19,51,8.10
2010,08,28,19,52,9.60
2010,08,28,19,53,8.10
2010,08,28,19,54,9.60
2010,08,28,19,55,11.30
2010,08,28,19,56,6.40
2010,08,28,19,57,8.10
2010,08,28,19,58,8.10
2010,08,28,19,59,8.10
2010,08,28,20,00,8.10
2010,08,28,20,01,9.60
2010,08,28,20,02,9.60
2010,08,28,20,03,8.10
2010,08,28,20,04,11.30
2010,08,28,20,05,9.60
2010,08,28,20,06,8.10
2010,08,28,20,07,8.10
2010,08,28,20,08,8.10
2010,08,28,20,09,8.10
2010,08,28,20,10,8.10
2010,08,28,20,11,6.40
2010,08,28,20,12,8.10
2010,08,28,20,13,9.60
2010,08,28,20,14,8.10
2010,08,28,20,15,9.60
2010,08,28,20,16,8.10
2010,08,28,20,17,3.20
2010,08,28,20,19,1.60
2010,08,28,20,20,1.60
2010,08,28,20,21,4.80
2010,08,28,20,22,4.80
2010,08,28,20,23,3.20
2010,08,28,20,24,4.80
2010,08,28,20,25,1.60
2010,08,28,20,26,3.20
2010,08,28,20,27,4.80
2010,08,28,20,28,1.60
2010,08,28,20,29,1.60
2010,08,28,20,32,4.80
2010,08,28,20,33,3.20
2010,08,28,20,34,6.40
2010,08,28,20,35,6.40
2010,08,28,20,36,6.40
2010,08,28,20,37,6.40
2010,08,28,20,38,4.80
2010,08,28,20,39,4.80
2010,08,28,20,40,4.80
2010,08,28,20,41,6.40
2010,08,28,20,42,4.80
2010,08,28,20,43,8.10
2010,08,28,20,44,6.40
2010,08,28,20,45,4.80
2010,08,28,20,46,4.80
2010,08,28,20,47,4.80
2010,08,28,20,48,4.80
2010,08,28,20,49,4.80
2010,08,28,20,50,4.80
2010,08,28,20,51,4.80
2010,08,28,20,52,3.20
2010,08,28,20,53,4.80
2010,08,28,20,54,4.80
2010,08,28,20,55,4.80
2010,08,28,20,56,1.60
2010,08,28,20,57,1.60
2010,08,28,20,58,1.60
2010,08,28,20,59,3.20
2010,08,28,21,00,3.20
2010,08,28,21,02,4.80
2010,08,28,21,03,1.60
2010,08,28,21,08,3.20
2010,08,28,21,09,1.60
2010,08,28,21,10,3.20
2010,08,28,21,11,1.60
2010,08,28,21,12,1.60
2010,08,28,21,13,4.80
2010,08,28,21,14,3.20
2010,08,28,21,17,1.60
2010,08,28,21,18,1.60
2010,08,28,21,19,1.60
2010,08,28,21,38,3.20
2010,08,28,21,39,4.80
2010,08,28,21,40,3.20
2010,08,28,21,41,3.20
2010,08,28,21,42,3.20
2010,08,28,21,43,1.60
2010,08,28,22,54,3.20
2010,08,28,22,55,3.20
2010,08,28,22,56,4.80
2010,08,28,22,57,4.80
2010,08,28,22,58,4.80
2010,08,28,23,23,1.60
2010,08,28,23,50,1.60
